Location: Ville-Marie
(47.3330°N, 79.4330°W)
Time: 13:22:02
(UTC-04:00)

ISS - Visible Passes

Search period start: 29 July 2021 00:00
Search period end: 08 August 2021 00:00
Orbit: 419 x 421 km, 51.6° (Epoch: 29 July)

Date Brightness Start Highest point End Pass type
(mag) Time Alt. Az. Time Alt. Az. Time Alt. Az.
29 Jul -3.7 21:48:32 10° WNW 21:51:55 70° SSW 21:54:48 13° SE visible
29 Jul -1.3 23:26:36 10° WSW 23:27:46 13° SW 23:27:46 13° SW visible
30 Jul -1.9 22:38:33 10° W 22:41:06 20° SW 22:42:09 17° SSW visible
31 Jul -2.4 21:50:54 10° W 21:53:55 30° SW 21:56:35 12° SSE visible
02 Aug -1.2 21:54:09 10° WSW 21:55:42 13° SW 21:57:16 10° SSW visible
